This demonstration page uses our WeatherBlox Daily Observations layout. Learn more.

Left ArrowRight Arrow

44.89941, -97.11507

Hourly Observations for January 14, 2021

Temp ( °F °C ) Dew Point ( °F °C ) Humidity (%) Winds ( mph kmh ) Pressure ( in mb ) Visibility ( mi km ) Precip ( " mm )
12:53 am 00:53 Cloudy with Light Rain 39 3.9 37 2.8 93 93 WNW 15 24 29.49 999 10 16 0.03 0.76
1:53 am 01:53 Cloudy 38 3.3 36 2.2 93 93 NW 16 26 29.52 1000 10 16 0.01 0.25
2:53 am 02:53 Cloudy with Light Rain 39 3.9 32 0 76 76 NW 22 35 29.54 1000 10 16 0.02 0.51
3:53 am 03:53 Cloudy with Light Rain 37 2.8 32 0 82 82 WNW 28 44 29.57 1001 10 16 0.00 0.00
4:32 am 04:32 Cloudy with Light Snow 34 1.1 33 0.6 97 97 WNW 16 26 29.60 1002 7 11 0.01 0.25
4:53 am 04:53 Cloudy with Light Snow 34 1.1 32 0 92 92 WNW 18 30 29.57 1001 9 14 0.01 0.25
5:02 am 05:02 Cloudy with Light Snow 34 1.1 32 0 92 92 WNW 15 24 29.59 1002 7 11 0.00 0.00
5:53 am 05:53 Cloudy 35 1.7 31 -0.6 85 85 WNW 17 28 29.55 1001 10 16 0.00 0.00
6:53 am 06:53 Cloudy 34 1.1 29 -1.7 82 82 WNW 15 24 29.53 1000 10 16 0.00 0.00
7:53 am 07:53 Cloudy 34 1.1 30 -1.1 85 85 WNW 23 37 29.52 1000 10 16 0.00 0.00
8:53 am 08:53 Cloudy 33 0.6 30 -1.1 89 89 WNW 22 35 29.54 1001 10 16 0.00 0.00
9:53 am 09:53 Cloudy 34 1.1 27 -2.8 76 76 NW 31 50 29.55 1001 10 16 0.00 0.00
10:53 am 10:53 Cloudy 34 1.1 26 -3.3 73 73 NW 32 52 29.56 1001 10 16 0.00 0.00
12:53 pm 12:53 Cloudy 32 0 25 -3.9 75 75 NW 31 50 29.53 1000 10 16 0.00 0.00
1:53 pm 13:53 Cloudy 31 -0.6 24 -4.4 76 76 NW 32 52 29.54 1001 10 16 0.00 0.00
2:53 pm 14:53 Cloudy 31 -0.6 24 -4.4 76 76 NW 25 41 29.56 1001 8 13 0.00 0.00
3:24 pm 15:24 Windy with Snow Likely 30 -1.1 24 -4.4 79 79 NW 30 48 29.62 1003 2 3 0.00 0.00
3:32 pm 15:32 Windy with Snow Likely 30 -1.1 24 -4.4 79 79 NW 30 48 29.62 1003 1 2 0.00 0.00
3:41 pm 15:41 Windy with Snow Likely 30 -1.1 25 -3.9 82 82 NW 29 46 29.63 1003 1 1 0.00 0.00
3:49 pm 15:49 Windy with Snow Likely 30 -1 25 -4 80 80 NW 26 43 29.62 1003 1 1 0.00 0.00
3:53 pm 15:53 Windy with Snow Likely 30 -1.1 25 -3.9 82 82 NW 30 48 29.58 1002 1 1 0.00 0.00
4:21 pm 16:21 Mostly Cloudy with Snow 29 -1.7 26 -3.3 89 89 NW 35 56 29.64 1004 0 0 0.00 0.00
4:34 pm 16:34 Mostly Cloudy with Snow 29 -1.7 25 -3.9 85 85 NW 30 48 29.64 1004 1 1 0.00 0.00
4:50 pm 16:50 Windy with Snow Likely 28 -2 25 -4 86 86 NW 36 57 29.65 1004 1 2 0.00 0.00
4:53 pm 16:53 Windy with Snow Likely 29 -1.7 25 -3.9 85 85 NNW 36 57 29.61 1003 1 2 0.00 0.00
5:08 pm 17:08 Windy with Snow Likely 28 -2.2 25 -3.9 88 88 NNW 30 48 29.66 1005 2 2 0.00 0.00
5:22 pm 17:22 Windy with Snow Likely 28 -2.2 26 -3.3 92 92 NNW 29 46 29.67 1005 2 3 0.00 0.00
5:47 pm 17:47 Windy with Snow Likely 28 -2 27 -3 93 93 NNW 28 44 29.68 1005 2 3 0.00 0.00
5:53 pm 17:53 Windy with Snow Likely 28 -2.2 26 -3.3 92 92 NNW 29 46 29.64 1004 1 2 0.00 0.00
5:58 pm 17:58 Windy with Snow Likely 28 -2.2 26 -3.3 92 92 NNW 29 46 29.67 1005 2 2 0.00 0.00
6:07 pm 18:07 Windy with Snow Likely 28 -2.2 26 -3.3 92 92 NNW 26 43 29.67 1005 1 2 0.00 0.00
6:15 pm 18:15 Windy with Snow Likely 28 -2.2 26 -3.3 92 92 NNW 28 44 29.68 1005 1 2 0.00 0.00
6:22 pm 18:22 Windy with Snow Likely 28 -2.2 26 -3.3 92 92 NNW 29 46 29.68 1005 1 1 0.00 0.00
6:39 pm 18:39 Windy with Snow Likely 28 -2.2 26 -3.3 92 92 NNW 28 44 29.69 1006 1 1 0.02 0.51
6:53 pm 18:53 Mostly Cloudy with Snow 28 -2.2 26 -3.3 92 92 NNW 26 43 29.66 1004 1 1 0.02 0.51
7:06 pm 19:06 Mostly Cloudy with Snow 28 -2.2 27 -2.8 96 96 NW 26 43 29.70 1006 1 1 0.00 0.00
7:16 pm 19:16 Mostly Cloudy with Heavy Snow 28 -2.2 26 -3.3 92 92 NNW 31 50 29.70 1006 0 0 0.00 0.00
7:33 pm 19:33 Cloudy with Snow 27 -2.8 26 -3.3 96 96 NNW 32 52 29.71 1006 0 0 0.01 0.25
7:43 pm 19:43 Cloudy with Snow 27 -2.8 26 -3.3 96 96 NW 29 46 29.71 1006 1 1 0.01 0.25
7:53 pm 19:53 Cloudy with Heavy Snow 27 -2.8 26 -3.3 96 96 NNW 31 50 29.67 1005 0 0 0.02 0.51
8:05 pm 20:05 Cloudy with Snow 27 -2.8 26 -3.3 96 96 NNW 29 46 29.71 1006 1 1 0.00 0.00
8:53 pm 20:53 Windy with Snow Likely 27 -2.8 25 -3.9 92 92 NNW 28 44 29.67 1005 1 1 0.01 0.25
9:10 pm 21:10 Cloudy with Snow 27 -2.8 25 -3.9 92 92 NNW 28 44 29.70 1006 1 1 0.00 0.00
9:36 pm 21:36 Windy with Snow Likely 27 -2.8 25 -3.9 92 92 NW 28 44 29.72 1006 1 2 0.00 0.00
9:50 pm 21:50 Windy with Snow Likely 27 -3 25 -4 93 93 NNW 25 41 29.72 1006 1 2 0.00 0.00
9:53 pm 21:53 Windy with Snow Likely 27 -2.8 25 -3.9 92 92 NNW 26 43 29.67 1005 2 2 0.00 0.00
10:05 pm 22:05 Windy with Snow Likely 27 -2.8 24 -4.4 89 89 NNW 25 41 29.72 1006 2 3 0.00 0.00
10:15 pm 22:15 Windy with Snow Likely 27 -2.8 24 -4.4 89 89 NNW 24 39 29.72 1006 3 5 0.00 0.00
10:23 pm 22:23 Windy with Snow Likely 27 -2.8 24 -4.4 89 89 NNW 28 44 29.72 1006 2 3 0.00 0.00
10:28 pm 22:28 Windy with Snow Likely 27 -2.8 24 -4.4 89 89 NNW 25 41 29.72 1006 2 3 0.00 0.00
10:53 pm 22:53 Windy with Snow Likely 27 -2.8 24 -4.4 89 89 NNW 28 44 29.68 1005 2 3 0.00 0.00
11:02 pm 23:02 Windy with Snow Likely 27 -2.8 24 -4.4 89 89 NNW 28 44 29.73 1007 3 5 0.00 0.00
11:18 pm 23:18 Windy with Snow Likely 27 -2.8 24 -4.4 89 89 NNW 26 43 29.73 1007 3 4 0.00 0.00
11:50 pm 23:50 Windy with Snow Likely 27 -3 25 -4 93 93 NNW 30 48 29.73 1007 4 6 0.00 0.00
11:53 pm 23:53 Windy with Snow Likely 27 -2.8 24 -4.4 89 89 NNW 32 52 29.69 1005 4 6 0.00 0.00

Powered by AerisWeather